Flag Weather past 2 weeks in St. Petersburg, Florida, U.S.A.

Now
58 °F

Clear.


Feels Like: 56 °F
Forecast: 54 / 72 °F
Wind: 10 mph from Northeast

Location: Whitted Airport

Current Time: Nov 21, 2014 at 5:58:35 AM

Latest Report: Nov 21, 2014 at 4:53 AM


Visibility: 10 mi

Pressure: 30.19 "Hg

Humidity: 62%

Dew point: 45 °F

Location of St. PetersburgLocation

Historic Weather in St. Petersburg — Graph

°F

St. Petersburg temperature yesterday

Maximum temperature yesterday: 64 °F (at 2:53 PM)
Minimum temperature yesterday: 50 °F (at 1:53 AM)
Average temperature yesterday: 57 °F

Past Weeks' High & Low Weather Summary

 TemperatureHumidityPressure
High79 °F (Nov 6, 11:53 AM)94% (Nov 17, 1:53 PM)30.37 "Hg (Nov 17, 1:53 PM)
Low44 °F (Nov 19, 6:53 AM)36% (Nov 12, 3:53 PM)29.85 "Hg (Nov 9, 3:53 PM)
Average64 °F72%30.05 "Hg
* Reported Nov 6 3:53 AM — Nov 21 3:53 AM, St. Petersburg, Weather by CustomWeather, © 2014

Note: Actual official high and low records may vary slightly from our data, if they occured in-between our weather recording intervals... More about our weather records

Advertising

St. Petersburg weather history for previous 24 hours

 ConditionsComfort  
Time TempWeatherWind HumidityBarometerVisibility
3:53 AM
Nov 21
58 °FPassing clouds.8 mph65%30.19 "Hg10 mi
2:53 AM57 °FPassing clouds.10 mph64%30.19 "Hg10 mi
1:53 AM58 °FPassing clouds.12 mph65%30.20 "Hg10 mi
12:53 AM57 °FClear.8 mph67%30.20 "Hg10 mi
11:53 PM
Nov 20
58 °FClear.10 mph65%30.21 "Hg10 mi
10:53 PM58 °FClear.7 mph65%30.22 "Hg10 mi
9:53 PM59 °FClear.9 mph62%30.21 "Hg10 mi
8:53 PM59 °FClear.12 mph54%30.20 "Hg10 mi
7:53 PM61 °FClear.12 mph52%30.20 "Hg10 mi
6:53 PM61 °FClear.13 mph54%30.19 "Hg10 mi
5:53 PM62 °FClear.14 mph50%30.18 "Hg10 mi
4:53 PM63 °FSunny.9 mph45%30.17 "Hg10 mi
3:53 PM64 °FSunny.9 mph37%30.16 "Hg10 mi
2:53 PM64 °FSunny.13 mph38%30.16 "Hg10 mi
1:53 PM63 °FSunny.12 mph40%30.18 "Hg10 mi
12:53 PM61 °FSunny.10 mph42%30.20 "Hg10 mi
11:53 AM60 °FSunny.12 mph47%30.24 "Hg10 mi
10:53 AM58 °FSunny.13 mph47%30.27 "Hg10 mi
9:53 AM54 °FSunny.9 mph47%30.28 "Hg10 mi
8:53 AM51 °FSunny.13 mph54%30.27 "Hg10 mi
7:53 AM50 °FSunny.14 mph61%30.27 "Hg10 mi
6:53 AM50 °FClear.13 mph68%30.25 "Hg10 mi
5:53 AM50 °FClear.12 mph74%30.24 "Hg10 mi
Weather by CustomWeather, © 2014

See weather overviewHow to use our weather pages